Date,TemperatureHighF,TemperatureAvgF,TemperatureLowF,DewpointHighF,DewpointAvgF,DewpointLowF,HumidityHigh,HumidityAvg,HumidityLow,PressureMaxIn,PressureMinIn,WindSpeedMaxMPH,WindSpeedAvgMPH,GustSpeedMaxMPH,PrecipitationSumIn
2013-1-1,34.4,33.1,30.1,33.0,30.8,26.7,95,91,85,30.18,30.08,8,1,8,0.40
2013-1-2,34.0,29.0,24.5,26.4,21.4,19.3,86,73,56,30.29,30.15,7,1,7,0.01
2013-1-3,39.5,28.9,22.1,22.5,19.8,13.5,88,70,35,30.43,30.27,12,1,12,0.01
2013-1-4,38.2,31.2,26.9,23.8,21.6,19.1,76,68,54,30.46,30.40,12,2,12,0.00
2013-1-5,44.1,34.3,23.6,27.2,23.3,19.1,83,65,46,30.45,30.23,7,1,7,0.00
2013-1-6,42.6,36.4,26.4,31.2,25.9,18.4,75,65,60,30.42,30.10,14,4,14,0.00
2013-1-7,41.8,32.2,22.5,23.9,21.5,18.1,84,65,47,30.52,30.31,6,0,6,0.00
2013-1-8,53.3,41.0,30.9,35.0,28.0,21.8,74,60,43,30.41,30.29,9,1,9,0.00
2013-1-9,53.8,47.7,43.1,45.8,41.6,35.0,94,80,71,30.54,30.29,5,1,6,0.00
2013-1-10,44.6,44.1,43.5,39.6,36.6,34.4,84,75,70,30.52,30.51,4,2,6,0.00
2013-1-11,67.4,58.9,52.3,54.5,51.9,46.5,92,78,58,30.12,29.93,10,4,21,0.25
2013-1-12,64.0,61.0,56.0,62.0,58.9,53.8,96,93,80,30.07,29.86,7,1,13,0.36
2013-1-13,64.7,54.5,36.0,58.0,51.2,32.5,97,89,72,30.18,29.83,11,4,22,2.08
2013-1-14,36.0,29.9,26.0,32.8,23.5,20.4,88,77,71,30.48,30.18,10,3,11,0.00
2013-1-15,28.5,28.5,28.5,23.7,23.7,23.7,82,82,82,30.33,30.33,5,5,9,0.00
2013-1-16,32.4,29.8,26.6,30.4,27.0,22.7,93,89,85,30.17,29.97,6,3,0,0.01
2013-1-17,37.8,34.4,31.2,30.3,28.5,25.8,92,79,65,30.45,30.16,5,1,13,0.03
2013-1-18,41.5,36.6,22.1,27.3,22.8,15.3,78,58,44,30.59,30.35,5,2,11,0.00
2013-1-19,54.5,46.7,35.3,28.6,25.1,21.6,60,43,28,30.35,30.06,13,6,21,0.00
2013-1-20,45.1,38.6,26.9,30.1,17.7,5.1,69,44,23,30.25,30.06,11,3,12,0.00
2013-1-21,30.7,25.2,14.1,18.5,8.5,-2.2,69,50,26,30.32,30.16,16,5,0,0.00
2013-1-22,20.6,15.4,11.1,2.1,-3.5,-7.9,56,43,28,30.48,30.32,14,4,0,0.00
2013-1-23,33.8,23.4,12.3,15.3,7.8,-0.5,66,51,36,30.45,30.16,9,1,0,0.00
2013-1-24,28.1,22.2,17.5,16.4,2.1,-6.6,62,42,27,30.61,30.20,21,4,0,0.00
2013-1-25,27.2,23.8,20.2,23.6,16.1,2.8,90,74,45,30.42,30.12,9,2,0,0.00
2013-1-26,35.9,28.5,24.7,24.5,20.4,16.6,90,73,49,30.48,30.26,7,2,0,0.02
2013-1-27,44.2,34.1,23.5,39.1,25.0,17.2,91,70,46,30.47,30.25,7,2,0,0.16
2013-1-28,54.8,49.8,41.6,50.2,44.3,36.0,92,82,65,30.25,30.13,17,4,13,0.15
2013-1-29,66.8,59.7,51.6,56.4,51.9,46.6,86,76,65,30.14,29.64,14,4,14,0.00
2013-1-30,67.9,53.8,31.9,57.7,48.1,22.2,95,82,66,29.72,29.37,21,7,21,0.78
2013-1-31,33.5,29.3,17.3,28.1,20.1,7.2,91,69,53,30.14,29.73,27,7,27,0.00
2013-2-1,20.3,14.4,7.6,9.2,2.8,-3.3,70,59,50,30.52,30.15,19,4,19,0.00
2013-2-2,32.2,26.1,17.0,28.7,20.6,9.1,89,80,68,30.41,30.09,10,2,11,0.05
2013-2-3,29.4,27.4,21.6,23.7,21.0,16.7,82,77,71,30.21,30.01,13,3,13,0.00
2013-2-4,46.4,31.9,16.9,39.3,24.1,12.9,90,74,49,30.20,29.91,12,3,12,0.07
2013-2-5,50.4,43.2,37.2,39.2,35.2,30.1,91,75,51,30.08,29.91,12,4,12,0.00
2013-2-6,46.5,37.4,28.5,32.0,28.7,25.3,90,72,51,30.28,30.09,7,1,11,0.00
2013-2-7,62.9,48.2,36.6,38.0,31.1,28.0,71,54,32,30.21,29.89,8,2,11,0.00
2013-2-8,47.7,38.8,33.1,45.1,32.6,25.7,92,78,70,30.37,29.86,16,5,16,0.06
2013-2-9,42.8,35.1,26.9,26.4,20.2,17.2,77,56,37,30.47,30.24,8,2,11,0.00
2013-2-10,58.1,45.5,35.8,47.7,29.7,17.6,90,57,27,30.25,29.88,16,3,16,0.15
2013-2-11,55.1,49.7,37.6,50.4,35.1,23.4,87,59,36,30.13,29.88,17,6,21,0.00
2013-2-12,49.6,40.3,32.4,27.4,24.5,21.6,72,54,35,30.20,29.91,7,1,21,0.00
2013-2-13,40.6,36.1,31.3,32.0,28.3,24.8,91,74,54,30.00,29.77,10,1,21,0.04
2013-2-14,31.9,31.7,31.5,29.0,28.8,28.6,89,89,89,30.00,30.00,3,1,21,0.00
2013-2-15,41.5,35.1,27.0,32.0,26.0,18.1,80,70,53,30.20,30.05,7,2,17,0.00
2013-2-16,32.8,26.9,21.4,21.9,14.7,5.5,86,62,35,30.20,30.08,14,3,14,0.00
2013-2-17,35.5,26.4,19.1,12.7,9.1,2.8,73,49,27,30.32,30.18,11,2,11,0.00
2013-2-18,59.5,42.4,25.8,38.2,22.3,10.9,78,46,32,30.28,29.85,16,4,16,0.01
2013-2-19,44.8,36.3,23.8,39.2,24.5,12.7,89,63,38,30.20,29.78,17,7,17,0.11
2013-2-20,31.6,25.4,20.0,13.4,11.3,9.4,65,55,43,30.35,30.21,10,3,10,0.00
2013-2-21,36.5,27.9,18.9,28.2,16.2,10.7,87,62,45,30.38,30.06,11,3,11,0.15
2013-2-22,59.0,43.7,31.8,45.5,37.1,28.7,96,79,50,30.07,29.94,14,2,14,0.26
2013-2-23,46.7,39.5,33.2,36.4,28.0,21.8,83,64,44,30.03,29.93,8,2,8,0.00
2013-2-24,45.2,35.0,26.3,25.7,22.2,19.8,79,60,40,30.18,30.00,7,1,8,0.00
2013-2-25,48.0,37.4,27.5,23.3,20.8,18.7,71,53,35,30.18,29.83,14,5,14,0.00
2013-2-26,54.2,45.0,38.8,49.8,36.6,21.6,91,73,46,29.83,29.41,14,5,14,0.28
2013-2-27,39.1,36.4,32.2,34.4,31.9,27.9,90,84,71,29.83,29.64,15,6,15,0.02
2013-2-28,34.3,32.7,31.3,32.0,28.6,26.4,93,85,81,30.02,29.81,12,4,12,0.02
2013-3-1,35.8,33.6,31.0,32.2,30.8,27.3,93,89,82,30.05,29.98,8,2,8,0.03
2013-3-2,31.0,28.3,26.6,27.3,22.0,19.4,86,77,69,30.15,30.04,11,3,11,0.00
2013-3-3,33.7,27.8,22.7,22.5,19.0,14.5,86,70,47,30.17,30.11,10,2,10,0.00
2013-3-4,37.0,24.4,20.8,19.2,17.6,16.7,86,76,46,30.23,30.18,8,1,8,0.00
2013-3-5,46.0,38.3,27.9,44.9,33.4,23.3,96,84,48,29.99,29.59,13,5,31,0.65
2013-3-6,30.9,29.6,27.9,27.0,25.5,23.9,90,84,80,30.34,29.80,10,6,22,0.00
2013-3-7,34.4,32.2,30.0,27.2,25.0,22.3,86,75,63,30.44,30.33,3,1,6,0.01
2013-3-8,45.1,37.3,28.8,27.8,25.1,21.3,78,62,47,30.51,30.37,5,2,10,0.00
2013-3-9,63.2,49.1,32.8,32.4,27.1,23.3,73,45,24,30.37,30.09,5,2,11,0.00
2013-3-10,69.1,60.3,51.6,30.8,29.2,26.9,42,31,21,30.09,29.87,6,3,16,0.00
2013-3-11,62.1,48.4,38.0,51.9,40.1,29.9,94,76,30,29.93,29.68,12,4,20,0.81
2013-3-12,47.0,39.0,34.4,31.0,27.9,24.5,79,65,46,30.12,29.93,13,4,13,0.00
2013-3-13,37.3,31.8,26.6,29.0,20.0,11.1,84,62,43,30.41,30.09,18,6,18,0.00
2013-3-14,26.0,25.4,24.7,18.0,17.7,17.5,75,72,71,30.42,30.41,3,1,13,0.00
2013-3-15,59.5,48.8,32.2,39.8,34.5,25.8,78,59,44,30.25,29.81,6,1,13,0.00
2013-3-16,69.6,59.7,43.6,47.1,43.9,38.5,82,57,41,29.99,29.71,17,6,17,0.01
2013-3-17,42.6,36.4,33.8,38.5,33.5,31.2,96,89,81,30.11,29.94,17,4,17,0.73
2013-3-18,56.0,44.3,35.3,52.3,41.1,31.1,97,89,69,29.94,29.70,16,5,16,1.53
2013-3-19,47.0,39.4,33.8,32.3,21.1,4.7,86,53,18,30.19,29.93,17,5,17,0.00
2013-3-20,46.1,34.9,24.2,19.6,14.7,6.9,58,44,27,30.18,29.99,21,5,12,0.00
2013-3-21,24.4,23.1,22.1,11.4,10.6,10.1,61,58,56,30.07,30.06,3,0,0,0.00
2013-3-22,43.1,34.4,19.5,16.6,13.4,10.4,72,44,27,30.16,30.06,6,1,0,0.00
2013-3-23,52.2,43.2,37.0,26.8,20.7,15.8,56,41,27,30.08,29.84,9,2,0,0.00
2013-3-24,42.2,37.9,33.8,37.9,30.6,20.5,95,78,42,29.85,29.41,10,3,0,1.39
2013-3-25,34.7,31.6,29.7,31.4,28.1,24.9,91,87,77,30.03,29.53,14,7,0,0.03
2013-3-26,39.5,33.4,31.2,31.0,27.6,23.9,90,80,59,30.32,30.03,14,4,0,0.04
2013-3-27,42.1,35.9,28.4,25.8,22.2,19.4,76,58,43,30.40,30.31,11,2,0,0.00
2013-3-28,48.9,37.8,26.0,26.0,22.6,19.7,84,56,35,30.42,30.34,8,1,0,0.00
2013-3-29,54.5,42.7,32.1,37.9,28.5,23.0,84,59,30,30.37,30.26,9,1,0,0.00
2013-3-30,60.1,46.7,32.2,39.8,34.7,28.7,95,67,32,30.27,29.95,8,1,0,0.00
2013-3-31,58.0,50.5,46.7,47.4,43.6,37.7,95,79,53,29.95,29.83,10,2,0,0.17
2013-4-1,48.9,45.2,41.2,44.9,37.0,24.3,89,74,48,30.09,29.87,11,3,0,0.00
2013-4-2,47.6,39.6,27.6,22.6,14.3,8.8,72,37,21,30.32,30.16,11,2,6,0.00
2013-4-3,48.9,40.3,30.3,16.4,13.3,10.0,52,34,24,30.43,30.30,10,2,0,0.00
2013-4-4,51.3,43.8,35.5,32.2,20.9,11.9,65,40,32,30.31,30.02,11,2,0,0.00
2013-4-5,63.5,50.4,35.8,32.1,27.8,21.6,77,46,24,30.15,30.02,11,2,0,0.00
2013-4-6,70.8,56.4,42.3,34.3,28.7,23.8,48,36,24,30.19,29.97,8,2,12,0.00
2013-4-7,72.0,63.0,56.9,45.0,39.7,33.8,50,42,31,30.03,29.96,19,4,19,0.00
2013-4-8,73.5,64.6,56.0,51.7,46.2,39.3,65,52,41,30.02,29.93,15,2,15,0.00
2013-4-9,79.2,69.7,62.0,55.9,52.3,48.2,68,55,39,30.09,29.97,14,3,14,0.00
2013-4-10,82.8,72.7,62.0,58.6,54.3,50.8,74,54,37,30.02,29.80,16,3,16,0.00
2013-4-11,72.7,65.9,57.3,59.9,55.4,51.5,95,70,48,29.81,29.55,17,2,17,0.90
2013-4-12,57.6,48.6,40.3,56.2,37.7,29.6,95,67,47,29.99,29.55,15,5,15,0.56
2013-4-13,60.5,49.1,35.9,35.3,32.4,29.5,80,55,31,30.10,30.00,10,3,10,0.00
2013-4-14,72.5,57.1,43.5,48.5,38.0,32.7,75,52,26,30.07,29.89,8,1,8,0.00
2013-4-15,70.4,61.8,55.4,53.3,50.4,46.7,77,67,53,30.03,29.93,7,2,7,0.00
2013-4-16,80.5,68.2,60.4,62.5,57.1,51.8,91,69,51,30.21,29.99,10,2,0,0.42
2013-4-17,70.6,63.9,60.2,62.4,59.7,57.9,96,87,71,30.21,29.98,9,1,0,1.06
2013-4-18,81.1,71.4,62.6,59.5,54.7,48.3,81,58,33,29.98,29.65,16,4,0,0.00
2013-4-19,72.1,50.5,38.3,60.9,40.6,29.9,92,70,51,30.09,29.47,17,5,0,0.62
2013-4-20,53.9,44.2,35.3,31.6,27.4,21.7,81,55,29,30.40,30.10,10,2,0,0.00
2013-4-21,58.1,48.0,36.3,30.8,26.7,24.6,64,45,29,30.51,30.35,11,2,0,0.00
2013-4-22,69.3,57.0,43.1,41.5,33.2,25.0,51,41,27,30.35,30.15,6,1,0,0.00
2013-4-23,69.9,60.3,49.2,49.0,43.6,37.7,66,54,44,30.16,29.95,7,1,0,0.00
2013-4-24,62.7,52.0,41.1,54.7,43.9,33.5,94,75,56,30.29,29.83,10,3,0,0.96
2013-4-25,59.2,47.9,34.4,36.2,33.0,29.7,90,60,37,30.41,30.28,8,1,0,0.00
2013-4-26,61.0,52.5,41.6,37.5,30.3,24.3,59,44,25,30.48,30.34,5,1,0,0.00
2013-4-27,57.3,54.5,51.7,52.8,45.1,35.3,95,72,50,30.38,30.04,6,1,0,0.15
2013-4-28,67.3,58.5,52.2,57.3,53.7,49.4,95,85,63,30.04,29.86,10,2,0,0.30
2013-4-29,63.9,56.8,51.6,53.1,51.3,48.8,93,83,64,30.05,29.95,3,0,0,0.00
2013-4-30,76.5,64.9,51.0,56.1,50.9,46.9,93,64,37,30.07,29.99,4,0,0,0.00
2013-5-1,81.8,70.6,57.5,57.3,53.4,47.6,84,57,32,30.18,30.06,5,0,0,0.00
2013-5-2,74.4,67.0,57.5,53.8,50.5,48.1,71,56,43,30.21,30.09,4,0,0,0.00
2013-5-3,74.9,66.8,58.1,55.5,49.9,34.6,76,56,33,30.09,29.93,7,1,0,0.00
2013-5-4,69.9,60.0,53.2,51.9,43.8,35.0,95,58,33,30.01,29.92,13,1,0,0.00
2013-5-5,53.5,50.4,46.8,52.1,48.5,44.9,95,93,91,29.98,29.87,10,3,10,0.00
2013-5-6,65.0,55.6,50.8,54.2,50.9,46.5,94,85,61,29.94,29.82,10,2,10,0.01
2013-5-7,69.6,60.2,52.8,57.0,53.1,50.6,96,79,53,29.99,29.90,7,0,10,0.00
2013-5-8,72.7,61.4,55.7,58.3,55.5,52.1,97,83,49,30.04,29.93,6,0,10,0.00
2013-5-9,79.0,67.2,56.0,57.5,54.2,48.7,89,66,35,30.07,29.97,5,0,10,0.00
2013-5-10,69.3,63.4,61.5,61.0,58.1,54.6,95,84,60,29.99,29.86,5,0,10,0.00
2013-5-11,62.1,57.3,52.2,60.7,52.7,42.7,95,85,65,30.02,29.85,6,0,10,0.00
2013-5-12,52.5,46.2,41.1,41.5,37.4,28.4,88,72,42,30.12,30.02,4,0,10,0.00
2013-6-9,0.0,0.0,0.0,0.0,0.0,0.0,0,0,100,30.09,29.94,0,0,0,0.00
2013-6-10,0.0,0.0,0.0,0.0,0.0,0.0,0,0,100,29.94,29.85,0,0,0,0.00
2013-6-11,0.0,0.0,0.0,0.0,0.0,0.0,0,0,100,30.04,29.94,0,0,0,0.00
2013-6-12,0.0,0.0,0.0,0.0,0.0,0.0,0,0,100,30.00,29.84,0,0,0,0.00
2013-6-13,0.0,0.0,0.0,0.0,0.0,0.0,0,0,100,29.97,29.71,0,0,0,0.00
2013-6-14,0.0,0.0,0.0,0.0,0.0,0.0,0,0,100,30.08,29.93,0,0,0,0.00
2013-6-15,82.8,44.6,0.0,58.3,32.4,0.0,61,28,36,30.14,29.98,1,0,6,0.09
2013-6-16,82.0,72.7,65.3,65.9,62.1,57.6,94,71,55,30.06,29.96,4,0,6,0.12
2013-6-17,84.7,72.9,65.2,69.7,65.1,55.4,96,79,48,30.00,29.88,6,0,0,0.01
2013-6-18,81.2,69.8,62.1,65.4,62.2,53.5,95,79,46,29.99,29.84,10,0,0,0.52
2013-6-19,81.2,71.4,61.5,62.8,58.8,54.2,94,67,43,30.12,29.96,3,0,0,0.00
2013-6-20,86.1,74.8,63.2,62.5,57.7,53.2,80,57,36,30.19,30.11,2,0,0,0.00
2013-6-21,86.3,76.6,66.0,66.6,62.0,58.5,81,62,44,30.21,30.12,4,0,0,0.00
2013-6-22,87.4,77.9,66.1,66.8,63.7,60.8,90,64,44,30.20,30.06,2,0,2,0.00
2013-6-23,87.4,77.9,66.3,66.4,62.8,58.1,88,62,39,30.16,30.05,4,0,4,0.00
2013-6-24,83.8,72.3,67.9,72.2,66.1,63.7,92,81,57,30.16,30.06,12,0,12,0.57
2013-6-25,87.6,77.7,67.4,71.3,68.0,65.6,95,74,50,30.10,29.94,2,0,2,0.00
2013-6-26,85.9,74.4,66.8,70.6,67.3,63.7,96,80,52,29.98,29.77,13,0,13,1.27
2013-6-27,84.7,73.7,66.4,72.2,68.2,65.2,97,84,56,29.84,29.75,4,0,4,0.19
2013-6-28,84.5,77.2,68.9,69.1,62.3,52.9,84,63,34,29.75,29.61,9,0,9,0.00
2013-6-29,80.7,71.6,63.5,63.3,60.5,58.0,95,70,48,29.69,29.59,12,0,12,0.28
2013-6-30,78.8,71.7,63.2,63.8,61.4,58.2,97,72,50,29.80,29.65,2,0,2,0.02
2013-7-1,79.0,69.1,61.0,67.1,62.6,58.3,96,81,57,29.93,29.78,5,0,5,0.36
2013-7-2,80.5,69.8,61.2,69.1,64.3,60.0,97,84,60,30.04,29.90,1,0,1,0.04
2013-7-3,77.0,71.8,66.6,68.2,66.0,63.3,94,82,72,30.13,30.03,1,0,0,0.00
2013-7-4,69.8,67.2,64.2,67.9,64.6,62.5,97,92,80,30.15,30.08,2,0,0,1.50
2013-7-5,73.2,68.8,64.8,71.2,67.6,63.9,98,96,91,30.16,30.09,2,0,0,1.09
2013-7-6,74.2,68.9,66.8,69.0,66.8,63.6,97,93,74,30.15,30.08,2,0,0,0.45
2013-7-7,80.9,71.2,65.6,68.2,64.8,61.3,97,83,53,30.14,30.06,1,0,0,0.05
2013-7-8,87.4,77.8,66.1,69.5,66.4,63.0,96,70,47,30.16,30.06,0,0,5,0.00
2013-7-9,89.0,80.9,73.7,71.6,68.8,65.9,88,68,50,30.12,30.01,1,0,6,0.02
2013-7-10,88.6,76.8,69.9,74.0,70.5,67.1,96,82,59,30.02,29.84,5,0,12,0.32
2013-7-11,82.4,73.3,68.1,69.0,65.1,59.0,97,77,54,29.99,29.93,3,0,11,0.00
2013-7-12,79.0,70.5,62.7,58.7,55.4,50.5,76,60,39,30.07,29.99,12,0,12,0.00
2013-7-13,82.0,71.6,62.4,66.6,61.7,55.8,85,72,51,30.11,30.01,3,0,8,0.04
2013-7-14,89.3,78.1,68.6,72.4,68.1,64.7,88,73,49,30.21,30.09,1,0,8,0.00
2013-7-15,91.4,79.9,70.9,71.4,67.4,62.9,85,67,43,30.29,30.21,1,0,8,0.00
2013-7-16,90.1,81.2,72.3,70.4,67.8,65.1,85,66,45,30.32,30.24,1,0,8,0.00
2013-7-17,93.4,81.4,73.2,71.6,69.0,65.6,88,68,43,30.30,30.17,2,0,8,0.00
2013-7-18,90.1,78.6,73.3,73.8,70.0,64.7,90,76,53,30.19,30.04,2,0,8,0.33
2013-7-19,88.0,79.3,70.8,73.2,70.1,66.2,92,74,53,30.06,29.93,4,0,8,0.00
2013-7-20,87.4,80.1,73.3,72.6,69.6,66.2,87,72,51,29.96,29.86,6,0,8,0.00
2013-7-21,84.9,77.0,70.6,70.9,69.1,67.1,94,77,57,29.96,29.87,1,0,8,0.13
2013-7-22,75.3,71.8,71.1,71.9,70.3,69.0,97,95,82,29.91,29.81,1,0,8,0.37
2013-7-23,85.3,76.6,66.4,72.1,69.3,62.4,96,80,59,29.86,29.75,8,0,5,0.63
2013-7-24,77.0,69.8,62.7,66.8,60.6,56.4,93,74,53,29.97,29.80,4,0,0,0.00
2013-7-25,76.5,69.2,60.5,59.2,56.1,53.8,84,64,47,30.09,29.96,5,0,0,0.00
2013-7-26,81.2,70.9,58.0,62.3,58.0,52.4,90,65,46,30.09,29.98,3,0,0,0.00
2013-7-27,75.6,69.7,65.2,64.6,62.3,59.0,91,77,64,29.98,29.87,2,0,0,0.02
2013-7-28,74.0,65.3,56.5,59.2,50.7,43.6,83,61,37,30.10,29.93,2,0,0,0.00
2013-7-29,77.9,66.4,55.0,58.7,54.4,51.7,90,68,41,30.20,30.09,3,0,0,0.00
2013-7-30,78.5,68.8,60.9,65.2,60.5,57.4,91,76,50,30.23,30.14,0,0,0,0.03
2013-7-31,72.5,67.5,62.9,66.7,64.4,61.0,97,90,80,30.15,29.97,1,0,0,0.13
2013-8-1,80.1,71.5,65.0,68.1,63.3,57.5,97,78,47,30.00,29.94,4,0,0,0.00
2013-8-2,81.1,71.8,60.7,62.3,59.3,55.8,91,67,43,30.05,29.99,2,0,0,0.00
2013-8-3,82.4,75.1,68.4,69.0,65.1,60.1,88,72,58,30.03,29.94,4,0,0,0.00
2013-8-4,78.8,70.2,62.6,67.4,57.1,51.1,92,66,41,30.12,30.02,5,0,0,0.00
2013-8-5,83.2,70.3,60.5,57.9,54.3,50.4,78,59,35,30.12,29.96,3,0,0,0.00
2013-8-6,81.4,74.5,67.9,69.2,63.7,56.8,87,69,56,29.98,29.92,1,0,0,0.00
2013-8-7,83.4,76.1,71.6,75.5,71.1,68.6,95,85,66,29.96,29.87,2,0,0,0.17
2013-8-8,81.8,75.0,71.3,73.0,71.1,69.3,97,88,68,29.98,29.89,5,0,0,0.94
2013-8-9,83.8,74.9,69.9,71.9,70.1,68.1,96,85,65,30.02,29.93,5,0,0,0.27
2013-8-10,79.6,74.0,70.9,73.2,70.9,69.4,97,90,71,30.10,30.02,0,0,3,0.21
2013-8-11,84.5,76.5,70.3,72.9,69.6,66.3,98,81,56,30.11,30.03,1,0,8,0.01
2013-8-12,79.4,73.0,67.4,72.3,68.6,65.5,96,86,74,30.07,29.91,5,0,5,0.50
2013-8-13,77.4,71.1,63.7,71.1,65.1,54.5,94,82,62,30.04,29.88,6,0,6,0.22
2013-8-14,72.5,63.4,54.7,54.3,49.4,44.6,82,62,41,30.15,30.03,4,0,4,0.00
2013-8-15,60.9,58.1,56.9,49.4,49.1,48.2,76,72,63,30.15,30.13,0,0,1,0.00
2013-8-16,79.8,69.5,59.0,60.8,56.1,52.8,80,63,49,30.14,30.07,1,0,7,0.00
2013-8-17,82.4,72.0,64.0,62.3,58.7,55.4,78,64,45,30.17,30.09,2,0,3,0.00
2013-8-18,77.0,70.7,63.7,66.3,63.2,59.7,90,78,67,30.18,30.10,1,0,1,0.00
2013-8-19,82.4,72.4,66.4,70.6,65.8,64.1,96,81,57,30.14,30.06,2,0,2,0.04
2013-8-20,84.3,75.3,66.8,68.8,65.8,63.8,90,74,54,30.16,30.08,1,0,1,0.00
2013-8-21,82.0,73.0,68.3,71.3,66.4,60.3,96,81,52,30.17,30.06,7,0,7,0.01
2013-8-22,85.9,76.6,68.4,71.6,67.9,63.4,96,76,50,30.13,30.02,2,0,2,0.00
2013-8-23,83.2,72.9,69.8,68.6,67.2,64.3,91,83,54,30.08,30.01,4,0,4,0.00
2013-8-24,87.8,76.0,64.8,65.0,58.5,45.5,88,57,26,30.25,30.12,1,0,5,0.00
2013-8-25,85.5,73.9,63.4,66.2,60.3,55.7,85,64,38,30.33,30.22,2,0,2,0.00
2013-8-26,85.1,75.9,67.4,67.7,65.1,62.3,89,71,50,30.27,30.10,4,0,4,0.00
2013-8-27,87.0,77.8,70.1,71.9,69.4,66.9,90,76,58,30.11,29.99,4,0,4,0.00
2013-8-28,88.8,80.4,71.8,70.5,68.6,65.0,94,69,46,30.00,29.91,4,0,4,0.01
2013-8-29,85.5,77.6,70.9,71.4,67.9,63.9,93,73,51,30.01,29.94,4,0,4,0.00
2013-8-30,88.0,77.7,67.6,71.3,67.0,61.8,97,72,44,29.98,29.85,3,0,3,0.00
2013-8-31,87.6,74.5,67.9,76.2,69.2,65.8,97,84,55,29.95,29.76,7,0,7,2.26
2013-9-1,84.1,73.9,67.1,69.6,67.0,64.2,96,80,54,29.86,29.79,4,0,4,0.02
2013-9-2,84.1,75.2,69.4,71.1,68.5,65.8,94,81,62,29.90,29.80,3,0,3,0.01
2013-9-3,76.7,69.8,62.7,67.5,58.4,53.4,89,68,50,30.07,29.87,8,0,8,0.00
2013-9-4,79.9,67.6,56.3,59.6,56.2,53.6,93,69,44,30.16,30.07,3,0,3,0.00
2013-9-5,82.0,69.8,59.5,63.9,59.5,56.4,92,72,44,30.20,30.14,3,0,3,0.00
2013-9-6,83.4,71.3,61.6,63.2,56.8,51.3,87,63,37,30.21,30.10,3,0,3,0.00
2013-9-7,84.1,71.9,60.2,64.9,60.2,52.0,86,68,48,30.11,29.97,3,0,4,0.00
2013-9-8,88.4,76.8,67.3,67.3,64.8,61.1,93,69,46,30.00,29.93,3,0,3,0.00
2013-9-9,89.0,77.8,68.8,70.1,67.0,64.8,94,72,49,30.05,29.99,1,0,1,0.00
2013-9-10,89.0,79.7,71.8,70.5,68.8,67.6,87,71,51,30.16,30.05,3,0,3,0.00
2013-9-11,87.8,78.1,71.6,70.7,68.8,65.6,90,74,49,30.17,30.04,2,0,2,0.00
2013-9-12,82.4,73.6,67.4,70.3,66.2,61.6,92,78,60,30.06,29.88,6,0,6,0.08
2013-9-13,68.9,62.5,54.4,64.2,49.6,41.6,89,64,42,30.07,29.91,12,1,12,0.00
2013-9-14,68.4,58.9,49.5,48.1,44.5,40.0,85,61,36,30.17,30.07,4,0,4,0.00
2013-9-15,76.7,64.2,51.6,59.1,53.2,46.4,86,69,50,30.17,30.07,5,0,5,0.00
2013-9-16,71.1,65.5,60.4,60.9,58.5,54.9,92,79,64,30.25,30.09,3,0,3,0.01
2013-9-17,74.2,64.2,53.6,57.1,53.2,49.5,90,70,42,30.29,30.15,5,0,5,0.00
2013-9-18,71.6,67.0,62.1,64.1,61.0,56.7,89,81,74,30.18,30.10,2,0,2,0.00
2013-9-19,79.6,70.7,63.9,68.3,64.9,61.9,94,83,66,30.16,30.01,3,0,3,0.00
2013-9-20,83.2,74.2,65.5,66.5,64.4,62.5,92,73,51,30.02,29.81,6,0,6,0.01
2013-9-21,72.0,64.5,56.0,66.4,58.0,48.8,97,81,50,29.87,29.69,8,1,8,0.71
2013-9-22,67.6,58.7,51.0,50.0,47.7,45.4,86,68,47,30.01,29.87,5,0,5,0.00
2013-9-23,70.6,59.8,49.2,49.6,47.2,44.4,90,65,40,30.10,30.00,3,0,3,0.00
2013-9-24,77.7,63.9,51.9,59.3,53.3,47.3,85,70,48,30.07,29.90,1,0,1,0.00
2013-9-25,77.6,68.1,62.6,61.6,58.2,54.8,84,71,53,29.91,29.83,7,0,7,0.00
2013-9-26,76.8,65.5,55.6,60.1,55.8,52.2,97,73,47,30.07,29.90,2,0,2,0.00
2013-9-27,80.7,65.9,54.2,60.2,54.0,47.8,96,70,36,30.17,30.06,3,0,3,0.00
2013-9-28,79.9,66.4,55.7,59.9,55.1,51.8,88,69,43,30.20,30.08,3,0,3,0.00
2013-9-29,73.9,64.8,58.6,57.6,56.3,54.9,91,75,53,30.09,30.02,4,0,4,0.00
2013-9-30,76.3,68.8,59.9,59.0,57.1,52.7,92,68,46,30.06,29.98,2,0,6,0.00
2013-10-1,77.6,67.7,57.3,61.4,58.7,54.7,92,74,53,30.12,30.03,2,0,4,0.00
2013-10-2,82.4,70.4,60.7,67.8,63.4,58.6,94,80,56,30.14,30.04,1,0,4,0.00
2013-10-3,79.2,70.4,66.3,69.9,65.7,61.0,96,86,55,30.11,30.03,0,0,4,0.29
2013-10-4,81.2,71.5,63.2,65.6,63.7,61.7,96,78,55,30.13,30.05,2,0,4,0.00
2013-10-5,82.4,71.5,66.3,68.1,65.3,63.3,97,82,56,30.08,29.93,6,0,6,0.18
2013-10-6,75.4,65.0,52.8,67.4,61.9,50.6,96,90,70,29.93,29.76,5,0,5,0.85
2013-10-7,61.5,53.5,46.5,52.1,45.5,40.7,96,76,47,30.18,29.89,5,0,5,0.04
2013-10-8,65.2,55.2,46.4,46.8,43.9,42.3,87,68,44,30.27,30.17,7,0,7,0.00
2013-10-9,74.0,59.5,49.4,51.5,45.5,42.8,80,61,41,30.24,30.16,3,0,4,0.00
2013-10-10,57.0,55.7,53.1,45.5,44.7,44.3,74,67,63,30.17,30.14,0,0,4,0.00
2013-10-11,74.4,61.9,48.5,54.3,49.4,44.9,90,67,37,30.12,30.04,1,0,5,0.00
2013-10-12,76.1,64.2,51.0,57.2,53.8,48.6,94,71,41,30.13,30.04,1,0,5,0.00
2013-10-13,77.7,64.2,53.8,61.7,56.4,51.6,96,77,48,30.27,30.13,3,0,3,0.00
2013-10-14,72.7,62.1,54.2,57.4,53.9,48.4,91,76,55,30.31,30.16,2,0,2,0.00
2013-10-15,72.8,65.1,59.6,60.6,58.7,56.7,94,81,60,30.18,29.96,3,0,3,0.00
2013-10-16,66.0,61.7,57.0,61.0,58.6,55.2,94,90,81,30.00,29.93,2,0,2,0.05
2013-10-17,56.9,52.6,47.0,55.2,48.6,43.9,94,87,71,30.04,29.89,4,0,4,0.12
2013-10-18,62.1,50.8,40.3,48.5,42.6,39.2,98,76,45,30.11,29.99,3,0,3,0.00
2013-10-19,51.6,47.1,40.5,48.8,43.0,38.4,92,86,78,30.08,29.89,3,0,3,0.07
2013-10-20,58.7,46.8,36.0,41.0,37.6,34.2,96,73,40,30.14,30.06,5,0,0,0.00
2013-10-21,66.3,52.4,38.9,42.7,38.5,35.6,89,62,32,30.10,29.96,5,0,0,0.00
2013-10-22,55.0,47.7,39.3,47.3,34.9,22.7,88,64,32,30.09,29.85,7,0,0,0.03
2013-10-23,47.0,42.8,38.2,43.1,36.1,31.0,88,78,63,30.11,29.77,14,1,0,0.00
2013-10-24,46.2,39.4,35.2,34.8,30.8,26.7,80,72,52,30.34,30.11,8,0,0,0.00
2013-10-25,46.0,36.5,28.7,29.0,25.6,21.6,87,67,41,30.51,30.34,3,0,0,0.00
2013-10-26,53.5,41.6,31.8,33.1,27.7,24.1,76,59,39,30.35,30.04,7,1,0,0.00
2013-10-27,60.2,46.8,34.7,39.4,35.8,31.5,93,68,39,30.14,30.07,4,0,0,0.00
2013-10-28,60.2,52.9,46.7,52.0,45.7,36.7,92,77,63,30.30,30.12,0,0,0,0.00
2013-10-29,60.5,52.0,42.8,54.6,49.5,41.2,98,91,78,30.36,30.19,1,0,0,0.03
2013-10-30,67.1,61.0,55.6,62.2,58.8,54.2,98,93,75,30.21,30.06,3,0,0,0.29
2013-10-31,68.6,64.3,61.5,60.7,56.1,51.1,92,75,61,30.06,29.47,14,2,0,0.14
2013-11-1,63.9,57.2,50.1,53.3,47.1,40.8,92,71,44,29.79,29.57,9,1,0,0.39
2013-11-2,56.0,48.6,42.3,43.7,39.5,33.9,88,72,49,30.14,29.79,6,0,0,0.00
2013-11-3,53.8,43.8,34.7,38.5,34.8,31.7,90,72,47,30.40,30.14,4,0,0,0.00
2013-11-4,59.8,49.2,40.3,40.6,35.5,31.6,74,60,41,30.43,30.34,5,0,0,0.00
2013-11-5,64.5,55.1,48.3,38.6,36.1,30.2,67,50,28,30.44,30.26,3,0,0,0.00
2013-11-6,68.9,57.7,49.5,59.0,47.0,34.5,96,69,51,30.26,30.02,6,1,0,0.14
2013-11-7,50.2,42.9,37.0,48.0,33.1,24.5,92,70,40,30.30,30.06,11,2,0,0.14
2013-11-8,50.8,40.2,30.3,28.8,26.1,22.0,87,59,34,30.44,30.30,6,0,0,0.00
2013-11-9,60.2,46.5,34.3,32.3,26.4,22.0,68,48,23,30.31,30.15,10,2,0,0.00
2013-11-10,52.9,45.8,37.0,36.4,29.1,20.2,76,54,28,30.38,30.20,12,1,0,0.00
2013-11-11,62.1,47.4,32.5,42.2,25.4,16.4,87,47,17,30.34,30.15,7,0,0,0.00
2013-11-12,44.3,31.8,25.6,39.8,21.9,11.2,91,68,40,30.67,30.23,16,3,0,0.10
2013-11-13,40.1,30.2,21.8,21.4,18.6,16.0,84,64,39,30.73,30.48,6,0,0,0.01
2013-11-14,54.2,42.7,27.2,22.3,16.9,13.5,68,38,21,30.47,30.24,8,1,10,0.00
2013-11-15,55.4,46.0,37.0,43.6,30.5,17.4,93,57,35,30.26,30.15,8,1,10,0.01
2013-11-16,61.3,52.8,43.6,52.9,48.7,42.5,98,86,73,30.18,29.97,10,1,0,0.00
2013-11-17,65.2,61.1,51.4,62.5,54.9,39.4,96,81,52,29.95,29.65,11,3,0,0.71
2013-11-18,55.3,47.4,37.2,41.3,33.5,23.2,83,60,30,30.23,29.85,14,2,0,0.00
2013-11-19,42.5,36.3,31.2,27.4,25.3,23.5,75,64,52,30.35,30.23,10,2,0,0.00
2013-11-20,33.5,31.2,31.0,24.0,23.7,23.5,74,74,67,30.35,30.26,7,0,0,0.00
2013-11-21,31.0,31.0,31.0,23.7,23.7,23.7,74,74,74,30.33,30.21,0,0,0,0.00
2013-11-22,31.0,31.0,31.0,23.7,23.7,23.7,74,74,74,30.35,30.19,0,0,0,0.00
2013-11-23,40.1,30.3,21.9,23.7,19.9,8.6,74,66,28,30.60,30.32,15,0,0,0.00
2013-11-24,27.6,22.5,17.5,12.2,6.8,0.5,67,51,36,30.76,30.57,0,0,0,0.00
2013-11-25,42.1,31.0,22.4,30.0,14.5,7.9,92,52,29,30.57,30.24,0,0,0,0.00
2013-11-26,34.6,32.8,30.4,32.9,31.0,27.8,94,93,89,30.26,29.94,0,0,0,0.15
2013-11-27,30.7,27.0,19.5,27.6,21.1,12.8,89,78,65,30.39,29.96,0,0,0,0.00
2013-11-28,36.9,24.9,15.1,21.0,15.2,10.9,83,67,48,30.53,30.38,0,0,0,0.03
2013-11-29,43.5,32.1,21.6,24.0,19.7,15.2,77,61,42,30.67,30.53,0,0,0,0.02
2013-11-30,53.9,39.7,29.3,29.6,24.0,20.4,71,55,37,30.52,30.26,0,0,0,0.00
2013-12-1,49.5,43.7,38.5,32.8,28.8,24.1,64,56,48,30.25,29.98,0,0,0,0.00
2013-12-2,55.7,46.6,38.8,42.0,36.0,31.2,82,67,51,29.98,29.80,0,0,0,0.00
2013-12-3,56.0,50.0,43.3,47.1,44.7,41.4,94,82,70,29.90,29.81,0,0,0,0.00
2013-12-4,66.9,58.9,49.1,56.0,52.5,46.5,95,80,64,29.90,29.77,0,0,0,0.14
2013-12-5,64.7,50.9,34.0,62.0,47.3,31.9,96,88,78,30.16,29.85,0,0,0,1.47
2013-12-6,34.7,31.1,27.6,32.1,28.6,24.8,92,90,88,30.41,30.13,0,0,0,0.76
2013-12-7,27.6,25.7,22.7,24.8,21.7,18.6,89,85,80,30.61,30.40,0,0,0,0.00
2013-12-8,35.5,29.5,23.8,34.7,27.3,20.0,97,91,84,30.49,30.09,0,0,0,0.06
2013-12-9,34.7,31.0,26.4,33.9,27.3,20.2,97,86,76,30.29,30.09,0,0,0,0.17
2013-12-10,32.7,26.1,22.4,20.8,18.6,15.6,86,73,55,30.44,30.18,0,0,0,0.00
2013-12-11,23.0,21.2,20.0,18.0,17.1,16.4,87,84,81,30.46,30.44,0,0,0,0.00
2013-12-12,30.3,23.4,12.8,12.8,7.3,3.3,80,51,32,30.63,30.43,0,0,0,0.00
2013-12-13,43.9,33.4,21.4,27.6,15.0,9.1,68,48,28,30.43,30.17,0,0,0,0.02
2013-12-14,44.3,38.5,33.2,43.2,34.1,21.9,96,85,45,30.17,29.75,0,0,0,0.29
2013-12-15,33.2,29.9,27.6,30.9,25.0,21.6,91,82,74,30.20,29.93,0,0,0,0.00
2013-12-16,43.3,35.5,29.4,32.0,28.7,24.9,84,77,63,30.19,30.07,0,0,0,0.00
2013-12-17,42.6,36.1,27.8,34.3,29.6,23.3,87,77,68,30.27,30.05,0,0,0,0.01
2013-12-18,41.2,32.5,24.4,23.6,17.9,10.5,88,59,28,30.38,30.16,0,0,0,0.00
2013-12-19,58.7,47.5,34.7,34.7,24.4,17.2,51,40,34,30.22,30.04,14,0,0,0.00
2013-12-20,60.1,54.3,49.8,53.8,42.0,25.8,88,66,38,30.05,29.90,8,1,0,0.07
2013-12-21,69.8,62.3,56.3,61.4,57.0,49.2,96,83,70,29.91,29.58,21,3,0,0.43
2013-12-22,58.6,54.7,39.3,57.3,49.2,37.2,96,82,64,30.08,29.69,12,4,0,0.41
2013-12-23,39.1,32.8,25.7,37.0,25.0,18.3,92,73,59,30.44,30.09,12,4,0,0.01
2013-12-24,25.7,21.3,17.2,19.7,11.3,6.3,83,65,50,30.60,30.43,14,3,0,0.00
2013-12-25,39.2,28.7,16.9,19.5,13.5,8.8,72,54,35,30.53,30.29,7,2,0,0.00
2013-12-26,41.5,35.4,30.1,24.6,21.5,18.4,71,57,41,30.45,30.28,10,2,0,0.00
2013-12-27,49.9,37.6,25.8,23.7,19.3,14.5,78,50,27,30.50,30.39,8,1,0,0.00
2013-12-28,48.6,40.6,32.8,34.7,23.8,19.0,87,52,39,30.39,30.02,7,0,0,0.05
2013-12-29,43.8,39.0,31.0,38.8,36.0,26.8,96,89,79,30.11,29.89,14,2,0,0.43
2013-12-30,31.0,28.7,24.7,27.0,22.6,17.3,87,78,67,30.29,30.11,11,2,0,0.00
2013-12-31,36.9,28.4,22.2,20.2,17.3,14.5,77,64,46,30.48,30.28,11,2,0,0.00
2014-1-1,47.0,37.9,29.3,25.2,21.9,18.9,74,54,33,30.36,30.03,10,1,0,0.00
2014-1-2,38.0,27.9,12.9,35.4,22.6,5.6,94,81,55,30.34,29.83,21,4,0,0.13